User: anonymous
Location: Caltech
(34.1382°N, 118.1253°W)
Time: 06:06:08
(UTC-07:00)
Language:

OAO 2 Rocket - Orbit

View from above orbital plane
View from above orbital plane
View from above satellite
View from above satellite

Ground track
Ground track

The orbit data is extracted from the following two-line orbital elements,

1 03598U 68110B   14237.77568877  .00000342  00000-0  83783-4 0  6914
2 03598 034.9953 011.3758 0050195 185.2666 289.0739 14.53665573416991
Epoch (UTC): 25 August 2014 18:36:59
Eccentricity: 0.0050195
inclination: 34.9953°
perigee height: 678 km
apogee height: 749 km
right ascension of ascending node: 11.3758°
argument of perigee: 185.2666°
revolutions per day: 14.53665573
mean anomaly at epoch: 289.0739°
orbit number at epoch: 41699

The dashed part of the orbit path shows where the satellite is in the earth's shadow,  

DLR